DLH2484 EDDM-EGLL

Flight info

Callsign DLH2484
Flight time 1h 32m
Altitude 34000
Route GIVMI6S GIVMI Y101 INBED DCT REKDI DCT LOHRE DCT ADKUV DCT DENUT L608 LOGAN LOGAN2H
Aircraft A346/H-SDE2E3FGHIJ3J4J5M1RWXY/LB1D1

Departure

Time 2026-05-07 20:11
Airport Munich Airport (EDDM)

Arrival

Time 2026-05-07 21:44
Airport London Heathrow Airport (EGLL)
Time Latitude Longitude Altitude Speed Heading
2026-05-07 19:46 48.35588 11.79306 1464 ft 0 kts 263°
2026-05-07 19:57 48.35588 11.79307 1475 ft 1 kts 263°
2026-05-07 19:57 48.35591 11.79341 1471 ft 4 kts 260°
2026-05-07 19:57 48.35595 11.79376 1475 ft 4 kts 265°
2026-05-07 19:57 48.35593 11.79407 1470 ft 4 kts 297°
2026-05-07 19:58 48.35582 11.79425 1466 ft 4 kts 336°
2026-05-07 19:58 48.35557 11.79434 1469 ft 4 kts 353°
2026-05-07 19:58 48.35535 11.79438 1466 ft 1 kts 355°
2026-05-07 19:58 48.35530 11.79438 1463 ft 0 kts 355°
2026-05-07 20:03 48.35560 11.79434 1473 ft 10 kts 354°
2026-05-07 20:03 48.35669 11.79419 1471 ft 22 kts 354°
2026-05-07 20:04 48.35791 11.79396 1464 ft 10 kts 353°
2026-05-07 20:04 48.35868 11.79377 1469 ft 9 kts 341°
2026-05-07 20:04 48.35880 11.79371 1466 ft 1 kts 341°
2026-05-07 20:04 48.35897 11.79361 1465 ft 4 kts 337°
2026-05-07 20:05 48.35932 11.79346 1465 ft 3 kts 349°
2026-05-07 20:05 48.35956 11.79341 1473 ft 3 kts 353°
2026-05-07 20:05 48.35954 11.79342 1472 ft 0 kts 353°
2026-05-07 20:05 48.35958 11.79341 1473 ft 3 kts 353°
2026-05-07 20:06 48.36037 11.79327 1464 ft 17 kts 353°
2026-05-07 20:06 48.36161 11.79306 1467 ft 16 kts
2026-05-07 20:06 48.36206 11.79426 1471 ft 13 kts 87°
2026-05-07 20:06 48.36217 11.79522 1471 ft 10 kts 82°
2026-05-07 20:07 48.36227 11.79644 1473 ft 13 kts 83°
2026-05-07 20:07 48.36239 11.79790 1468 ft 15 kts 83°
2026-05-07 20:07 48.36253 11.79974 1472 ft 19 kts 83°
2026-05-07 20:07 48.36270 11.80183 1474 ft 21 kts 83°
2026-05-07 20:08 48.36287 11.80412 1473 ft 23 kts 83°
2026-05-07 20:08 48.36306 11.80662 1471 ft 25 kts 83°
2026-05-07 20:08 48.36326 11.80929 1473 ft 26 kts 83°
2026-05-07 20:08 48.36347 11.81211 1471 ft 28 kts 83°
2026-05-07 20:09 48.36370 11.81506 1473 ft 29 kts 83°
2026-05-07 20:09 48.36392 11.81794 1467 ft 24 kts 83°
2026-05-07 20:09 48.36391 11.82027 1467 ft 17 kts 90°
2026-05-07 20:10 48.36477 11.82144 1469 ft 15 kts 355°
2026-05-07 20:10 48.36595 11.82107 1466 ft 19 kts 343°
2026-05-07 20:10 48.36674 11.81941 1471 ft 34 kts 268°
2026-05-07 20:10 48.36618 11.81259 1472 ft 97 kts 263°
2026-05-07 20:11 48.36523 11.79940 1463 ft 152 kts 263°
2026-05-07 20:11 48.36379 11.78126 1554 ft 190 kts 264°
2026-05-07 20:11 48.36232 11.76078 2069 ft 201 kts 265°
2026-05-07 20:11 48.36099 11.73957 2777 ft 206 kts 265°
2026-05-07 20:12 48.35955 11.71811 3558 ft 206 kts 264°
2026-05-07 20:12 48.35792 11.69664 4268 ft 206 kts 263°
2026-05-07 20:12 48.35751 11.67464 4826 ft 216 kts 277°
2026-05-07 20:12 48.36180 11.65236 5362 ft 229 kts 298°
2026-05-07 20:13 48.37108 11.63202 5936 ft 242 kts 307°
2026-05-07 20:13 48.38173 11.61139 6447 ft 258 kts 306°
2026-05-07 20:13 48.39252 11.58887 7059 ft 268 kts 303°
2026-05-07 20:13 48.40276 11.56581 7918 ft 269 kts 301°
2026-05-07 20:14 48.41304 11.54150 8866 ft 270 kts 300°
2026-05-07 20:14 48.42296 11.51743 9781 ft 271 kts 299°
2026-05-07 20:14 48.43275 11.49339 10621 ft 274 kts 299°
2026-05-07 20:14 48.44274 11.46873 11431 ft 277 kts 299°
2026-05-07 20:15 48.45404 11.44480 12258 ft 285 kts 313°
2026-05-07 20:15 48.47087 11.42836 13088 ft 297 kts 336°
2026-05-07 20:15 48.49164 11.42067 13665 ft 315 kts 346°
2026-05-07 20:15 48.51390 11.41481 14098 ft 334 kts 347°
2026-05-07 20:16 48.53744 11.40876 14485 ft 352 kts 347°
2026-05-07 20:16 48.56213 11.40233 14845 ft 369 kts 347°
2026-05-07 20:16 48.58812 11.39540 15407 ft 379 kts 347°
2026-05-07 20:16 48.61414 11.38836 16226 ft 382 kts 347°
2026-05-07 20:17 48.64040 11.38118 17064 ft 385 kts 346°
2026-05-07 20:17 48.66656 11.37394 17851 ft 389 kts 345°
2026-05-07 20:17 48.69322 11.36275 18591 ft 391 kts 337°
2026-05-07 20:17 48.71784 11.34620 19232 ft 393 kts 329°
2026-05-07 20:18 48.74129 11.32450 19922 ft 395 kts 324°
2026-05-07 20:18 48.76419 11.30128 20652 ft 397 kts 323°
2026-05-07 20:18 48.78721 11.27763 21384 ft 400 kts 323°
2026-05-07 20:18 48.81041 11.25388 22060 ft 404 kts 324°
2026-05-07 20:19 48.83483 11.23161 22712 ft 410 kts 329°
2026-05-07 20:19 48.86067 11.21252 23366 ft 416 kts 334°
2026-05-07 20:19 48.88748 11.19687 23966 ft 421 kts 338°
2026-05-07 20:19 48.91534 11.18250 24507 ft 425 kts 339°
2026-05-07 20:20 48.94389 11.16818 25066 ft 429 kts 339°
2026-05-07 20:20 48.97201 11.15409 25605 ft 432 kts 339°
2026-05-07 20:20 49.00059 11.13968 26162 ft 435 kts 339°
2026-05-07 20:20 49.02945 11.12506 26707 ft 439 kts 339°
2026-05-07 20:21 49.05857 11.11026 27234 ft 442 kts 339°
2026-05-07 20:21 49.08790 11.09530 27749 ft 445 kts 339°
2026-05-07 20:21 49.11740 11.08023 28264 ft 449 kts 339°
2026-05-07 20:21 49.14676 11.06525 28795 ft 452 kts 339°
2026-05-07 20:22 49.17665 11.04999 29414 ft 452 kts 339°
2026-05-07 20:22 49.20696 11.03448 30212 ft 449 kts 339°
2026-05-07 20:22 49.23610 11.01950 30875 ft 447 kts 339°
2026-05-07 20:22 49.26570 11.00425 31447 ft 446 kts 339°
2026-05-07 20:23 49.29513 10.98905 31998 ft 446 kts 338°
2026-05-07 20:23 49.32387 10.97146 32510 ft 444 kts 333°
2026-05-07 20:23 49.35145 10.95006 33020 ft 444 kts 328°
2026-05-07 20:23 49.37784 10.92480 33433 ft 445 kts 323°
2026-05-07 20:24 49.40256 10.89612 33839 ft 446 kts 318°
2026-05-07 20:24 49.42579 10.86386 34080 ft 447 kts 313°
2026-05-07 20:24 49.44759 10.82759 34075 ft 447 kts 308°
2026-05-07 20:25 49.48743 10.75242 34099 ft 460 kts 307°
2026-05-07 20:25 49.52831 10.67415 34089 ft 471 kts 307°
2026-05-07 20:26 49.56976 10.59500 34088 ft 472 kts 308°
2026-05-07 20:26 49.61106 10.51605 34088 ft 472 kts 307°
2026-05-07 20:27 49.65247 10.43565 34088 ft 471 kts 306°
2026-05-07 20:27 49.69050 10.35179 34089 ft 471 kts 303°
2026-05-07 20:28 49.72721 10.26840 34087 ft 471 kts 303°
2026-05-07 20:28 49.76208 10.18898 34095 ft 472 kts 303°
2026-05-07 20:29 49.79961 10.10338 34085 ft 473 kts 303°
2026-05-07 20:29 49.83637 10.01929 34086 ft 473 kts 303°
2026-05-07 20:30 49.87335 9.93446 34080 ft 472 kts 303°
2026-05-07 20:30 49.90989 9.85039 34084 ft 471 kts 303°
2026-05-07 20:31 49.94666 9.76551 34080 ft 471 kts 303°
2026-05-07 20:31 49.98315 9.68102 34084 ft 471 kts 303°
2026-05-07 20:32 50.01945 9.59583 34083 ft 471 kts 301°
2026-05-07 20:32 50.05129 9.50668 34087 ft 470 kts 296°
2026-05-07 20:33 50.07715 9.41269 34087 ft 470 kts 290°
2026-05-07 20:33 50.09685 9.31500 34086 ft 470 kts 285°
2026-05-07 20:34 50.11413 9.21675 34084 ft 470 kts 285°
2026-05-07 20:34 50.13130 9.11831 34081 ft 469 kts 285°
2026-05-07 20:35 50.14853 9.01902 34081 ft 469 kts 285°
2026-05-07 20:35 50.16555 8.92052 34085 ft 469 kts 285°
2026-05-07 20:36 50.18240 8.82248 34085 ft 469 kts 285°
2026-05-07 20:36 50.19930 8.72371 34085 ft 469 kts 284°
2026-05-07 20:37 50.21612 8.62475 34089 ft 469 kts 284°
2026-05-07 20:37 50.23269 8.52677 34089 ft 469 kts 284°
2026-05-07 20:38 50.24937 8.42760 34090 ft 469 kts 284°
2026-05-07 20:38 50.26583 8.32917 34091 ft 469 kts 284°
2026-05-07 20:39 50.28240 8.22964 34090 ft 470 kts 284°
2026-05-07 20:39 50.29884 8.13005 34095 ft 470 kts 284°
2026-05-07 20:40 50.31515 8.03073 34096 ft 470 kts 284°
2026-05-07 20:40 50.33139 7.93126 34088 ft 470 kts 284°
2026-05-07 20:41 50.34774 7.83061 34096 ft 470 kts 283°
2026-05-07 20:41 50.36378 7.73126 34088 ft 470 kts 283°
2026-05-07 20:42 50.37986 7.63092 34088 ft 469 kts 283°
2026-05-07 20:42 50.39566 7.53187 34086 ft 469 kts 283°
2026-05-07 20:43 50.41144 7.43229 34099 ft 469 kts 283°
2026-05-07 20:43 50.42714 7.33275 34086 ft 470 kts 283°
2026-05-07 20:44 50.44278 7.23285 34082 ft 470 kts 283°
2026-05-07 20:44 50.45830 7.13311 34081 ft 470 kts 283°
2026-05-07 20:45 50.47368 7.03375 34082 ft 470 kts 283°
2026-05-07 20:45 50.48905 6.93379 34091 ft 469 kts 282°
2026-05-07 20:46 50.50518 6.83403 34087 ft 468 kts 285°
2026-05-07 20:46 50.52634 6.73760 34088 ft 469 kts 289°
2026-05-07 20:47 50.54997 6.64155 34087 ft 469 kts 290°
2026-05-07 20:47 50.57356 6.54581 34087 ft 469 kts 290°
2026-05-07 20:48 50.59703 6.44999 34087 ft 467 kts 290°
2026-05-07 20:48 50.62039 6.35408 34088 ft 466 kts 289°
2026-05-07 20:49 50.64357 6.25848 34086 ft 466 kts 289°
2026-05-07 20:49 50.66676 6.16238 34087 ft 466 kts 289°
2026-05-07 20:50 50.68981 6.06647 34085 ft 466 kts 289°
2026-05-07 20:50 50.71266 5.97093 34084 ft 465 kts 289°
2026-05-07 20:51 50.73553 5.87494 34091 ft 465 kts 289°
2026-05-07 20:51 50.75820 5.77937 34083 ft 466 kts 289°
2026-05-07 20:52 50.78105 5.68256 34081 ft 466 kts 289°
2026-05-07 20:52 50.80374 5.58598 34088 ft 465 kts 289°
2026-05-07 20:53 50.82611 5.49037 34081 ft 465 kts 289°
2026-05-07 20:53 50.84851 5.39421 34082 ft 465 kts 289°
2026-05-07 20:54 50.86999 5.30159 34084 ft 465 kts 289°
2026-05-07 20:54 50.89225 5.20516 34084 ft 465 kts 289°
2026-05-07 20:55 50.91437 5.10894 34085 ft 464 kts 288°
2026-05-07 20:55 50.93643 5.01251 34087 ft 464 kts 288°
2026-05-07 20:56 50.95833 4.91634 34086 ft 464 kts 288°
2026-05-07 20:56 50.98044 4.81884 34086 ft 464 kts 288°
2026-05-07 20:57 51.00236 4.72170 34091 ft 464 kts 288°
2026-05-07 20:57 51.02411 4.62487 34105 ft 464 kts 288°
2026-05-07 20:58 51.04560 4.52877 34104 ft 464 kts 288°
2026-05-07 20:58 51.06725 4.43147 34106 ft 464 kts 288°
2026-05-07 20:59 51.08893 4.33363 34105 ft 464 kts 288°
2026-05-07 20:59 51.11032 4.23662 34102 ft 464 kts 288°
2026-05-07 21:00 51.13164 4.13950 34098 ft 464 kts 288°
2026-05-07 21:00 51.15288 4.04229 34096 ft 464 kts 288°
2026-05-07 21:01 51.17404 3.94498 34092 ft 464 kts 288°
2026-05-07 21:01 51.19513 3.84755 34087 ft 464 kts 288°
2026-05-07 21:02 51.21612 3.75012 34087 ft 465 kts 287°
2026-05-07 21:02 51.23743 3.65306 34086 ft 465 kts 289°
2026-05-07 21:03 51.26225 3.55602 34084 ft 465 kts 291°
2026-05-07 21:03 51.28703 3.46090 34098 ft 465 kts 291°
2026-05-07 21:04 51.31182 3.36531 34088 ft 464 kts 291°
2026-05-07 21:04 51.33664 3.26908 34084 ft 464 kts 290°
2026-05-07 21:05 51.36108 3.17384 34089 ft 464 kts 290°
2026-05-07 21:05 51.38573 3.07736 34089 ft 464 kts 290°
2026-05-07 21:06 51.41026 2.98094 34089 ft 464 kts 290°
2026-05-07 21:06 51.43459 2.88492 34008 ft 464 kts 290°
2026-05-07 21:06 51.44672 2.83692 33716 ft 465 kts 290°
2026-05-07 21:07 51.45886 2.78873 33447 ft 465 kts 290°
2026-05-07 21:07 51.46688 2.75684 33265 ft 466 kts 290°
2026-05-07 21:07 51.47901 2.70851 32992 ft 466 kts 290°
2026-05-07 21:07 51.49517 2.64400 32631 ft 467 kts 290°
2026-05-07 21:08 51.50727 2.59556 32364 ft 468 kts 290°
2026-05-07 21:08 51.51935 2.54711 32095 ft 468 kts 290°
2026-05-07 21:08 51.52742 2.51467 31911 ft 468 kts 290°
2026-05-07 21:08 51.53941 2.46642 31382 ft 463 kts 290°
2026-05-07 21:09 51.55126 2.41863 30956 ft 456 kts 290°
2026-05-07 21:09 51.56296 2.37135 30438 ft 452 kts 290°
2026-05-07 21:09 51.57459 2.32423 29816 ft 450 kts 290°
2026-05-07 21:09 51.58608 2.27756 29134 ft 448 kts 290°
2026-05-07 21:10 51.59756 2.23083 28460 ft 446 kts 290°
2026-05-07 21:10 51.60889 2.18461 28008 ft 439 kts 290°
2026-05-07 21:10 51.62001 2.13922 27607 ft 433 kts 290°
2026-05-07 21:10 51.63099 2.09427 27203 ft 427 kts 290°
2026-05-07 21:11 51.64167 2.05048 26796 ft 422 kts 290°
2026-05-07 21:11 51.65231 2.00672 26393 ft 418 kts 290°
2026-05-07 21:11 51.67320 1.92065 25907 ft 399 kts 289°
2026-05-07 21:12 51.68316 1.87954 25795 ft 387 kts 289°
2026-05-07 21:12 51.69277 1.83978 25693 ft 375 kts 289°
2026-05-07 21:12 51.70207 1.80119 25595 ft 363 kts 289°
2026-05-07 21:12 51.71105 1.76387 25501 ft 351 kts 289°
2026-05-07 21:13 51.71974 1.72765 25406 ft 339 kts 289°
2026-05-07 21:13 51.72812 1.69267 25321 ft 328 kts 289°
2026-05-07 21:13 51.73612 1.65926 25234 ft 316 kts 289°
2026-05-07 21:13 51.74274 1.62619 25131 ft 304 kts 279°
2026-05-07 21:14 51.74531 1.59226 25111 ft 301 kts 269°
2026-05-07 21:14 51.74428 1.55852 25111 ft 300 kts 264°
2026-05-07 21:14 51.74218 1.52494 25104 ft 300 kts 263°
2026-05-07 21:14 51.73995 1.49141 25102 ft 300 kts 263°
2026-05-07 21:15 51.73775 1.45816 24986 ft 295 kts 263°
2026-05-07 21:15 51.73557 1.42499 24584 ft 296 kts 263°
2026-05-07 21:15 51.73340 1.39179 24169 ft 297 kts 263°
2026-05-07 21:15 51.73122 1.35868 23803 ft 296 kts 263°
2026-05-07 21:16 51.72905 1.32571 23415 ft 294 kts 263°
2026-05-07 21:16 51.72688 1.29291 23007 ft 293 kts 263°
2026-05-07 21:16 51.72473 1.26027 22604 ft 291 kts 263°
2026-05-07 21:16 51.72260 1.22820 22213 ft 290 kts 263°
2026-05-07 21:17 51.72045 1.19587 21829 ft 288 kts 263°
2026-05-07 21:17 51.71829 1.16367 21450 ft 287 kts 263°
2026-05-07 21:17 51.71615 1.13172 21079 ft 286 kts 263°
2026-05-07 21:17 51.71401 1.09996 20713 ft 284 kts 262°
2026-05-07 21:18 51.71187 1.06830 20353 ft 283 kts 262°
2026-05-07 21:18 51.70972 1.03671 19992 ft 282 kts 262°
2026-05-07 21:18 51.70757 1.00530 19635 ft 280 kts 262°
2026-05-07 21:18 51.70542 0.97406 19295 ft 279 kts 262°
2026-05-07 21:19 51.70330 0.94293 18961 ft 278 kts 262°
2026-05-07 21:19 51.70112 0.91146 18405 ft 285 kts 262°
2026-05-07 21:19 51.69886 0.87902 17666 ft 296 kts 262°
2026-05-07 21:19 51.69657 0.84617 17441 ft 289 kts 262°
2026-05-07 21:20 51.69432 0.81399 16881 ft 294 kts 262°
2026-05-07 21:20 51.69196 0.78056 16189 ft 304 kts 262°
2026-05-07 21:20 51.68955 0.74658 15773 ft 304 kts 262°
2026-05-07 21:20 51.68716 0.71281 15410 ft 302 kts 262°
2026-05-07 21:21 51.68476 0.67908 14972 ft 303 kts 262°
2026-05-07 21:21 51.68232 0.64483 14359 ft 311 kts 262°
2026-05-07 21:21 51.67980 0.60974 13697 ft 317 kts 262°
2026-05-07 21:21 51.67723 0.57433 12979 ft 315 kts 262°
2026-05-07 21:22 51.67471 0.53956 12323 ft 311 kts 262°
2026-05-07 21:22 51.67220 0.50496 11673 ft 307 kts 262°
2026-05-07 21:22 51.66974 0.47136 11070 ft 303 kts 262°
2026-05-07 21:22 51.66727 0.43783 10535 ft 297 kts 262°
2026-05-07 21:23 51.66485 0.40497 10132 ft 287 kts 263°
2026-05-07 21:23 51.66254 0.37362 9701 ft 278 kts 263°
2026-05-07 21:23 51.66031 0.34317 9262 ft 270 kts 262°
2026-05-07 21:23 51.65812 0.31346 8828 ft 262 kts 262°
2026-05-07 21:24 51.65599 0.28495 8404 ft 256 kts 262°
2026-05-07 21:24 51.65386 0.25648 7983 ft 251 kts 262°
2026-05-07 21:24 51.65177 0.22886 7570 ft 246 kts 263°
2026-05-07 21:24 51.64971 0.20152 7174 ft 242 kts 262°
2026-05-07 21:25 51.64769 0.17475 6880 ft 239 kts 262°
2026-05-07 21:25 51.64568 0.14790 6869 ft 241 kts 263°
2026-05-07 21:25 51.64405 0.12085 6897 ft 242 kts 264°
2026-05-07 21:25 51.64260 0.09376 6896 ft 242 kts 264°
2026-05-07 21:26 51.64118 0.06681 6897 ft 242 kts 264°
2026-05-07 21:26 51.63970 0.03945 6896 ft 241 kts 264°
2026-05-07 21:26 51.63823 0.01245 6896 ft 241 kts 264°
2026-05-07 21:26 51.63674 -0.01453 6877 ft 241 kts 264°
2026-05-07 21:27 51.63521 -0.04161 6876 ft 241 kts 264°
2026-05-07 21:27 51.63397 -0.06378 6877 ft 240 kts 264°
2026-05-07 21:27 51.63248 -0.09053 6878 ft 240 kts 264°
2026-05-07 21:27 51.63097 -0.11726 6877 ft 240 kts 264°
2026-05-07 21:28 51.62944 -0.14423 6878 ft 240 kts 264°
2026-05-07 21:28 51.62792 -0.17102 6878 ft 239 kts 264°
2026-05-07 21:28 51.62635 -0.19827 6877 ft 239 kts 264°
2026-05-07 21:28 51.62482 -0.22490 6877 ft 239 kts 264°
2026-05-07 21:29 51.62333 -0.25060 6877 ft 238 kts 264°
2026-05-07 21:29 51.62173 -0.27821 6876 ft 238 kts 264°
2026-05-07 21:29 51.62018 -0.30481 6876 ft 238 kts 264°
2026-05-07 21:29 51.61863 -0.33135 6877 ft 238 kts 264°
2026-05-07 21:30 51.61710 -0.35753 6872 ft 237 kts 264°
2026-05-07 21:30 51.61554 -0.38402 6872 ft 237 kts 264°
2026-05-07 21:30 51.61397 -0.41045 6872 ft 237 kts 264°
2026-05-07 21:30 51.61241 -0.43690 6872 ft 236 kts 264°
2026-05-07 21:31 51.61083 -0.46328 6875 ft 236 kts 264°
2026-05-07 21:31 51.60925 -0.48965 6874 ft 236 kts 264°
2026-05-07 21:31 51.60768 -0.51585 6876 ft 235 kts 264°
2026-05-07 21:31 51.60607 -0.54245 6872 ft 235 kts 264°
2026-05-07 21:32 51.60448 -0.56863 6871 ft 235 kts 264°
2026-05-07 21:32 51.60287 -0.59514 6871 ft 234 kts 264°
2026-05-07 21:32 51.60130 -0.62090 6870 ft 234 kts 264°
2026-05-07 21:32 51.59971 -0.64694 6868 ft 234 kts 264°
2026-05-07 21:33 51.59807 -0.67357 6681 ft 237 kts 264°
2026-05-07 21:33 51.59643 -0.70013 6344 ft 240 kts 264°
2026-05-07 21:33 51.59478 -0.72695 6035 ft 240 kts 264°
2026-05-07 21:33 51.59314 -0.75323 5997 ft 234 kts 262°
2026-05-07 21:34 51.58825 -0.77787 5834 ft 228 kts 235°
2026-05-07 21:34 51.57691 -0.79499 5597 ft 222 kts 202°
2026-05-07 21:34 51.56196 -0.79959 5363 ft 216 kts 178°
2026-05-07 21:34 51.54702 -0.79967 5123 ft 214 kts 191°
2026-05-07 21:35 51.53388 -0.81068 4879 ft 214 kts 227°
2026-05-07 21:35 51.52689 -0.83130 4654 ft 212 kts 252°
2026-05-07 21:35 51.52333 -0.85427 4428 ft 210 kts 257°
2026-05-07 21:35 51.52052 -0.87741 4189 ft 209 kts 258°
2026-05-07 21:36 51.51789 -0.90034 3943 ft 207 kts 258°
2026-05-07 21:36 51.51534 -0.92202 3718 ft 205 kts 252°
2026-05-07 21:36 51.50817 -0.94104 3468 ft 200 kts 214°
2026-05-07 21:36 51.49556 -0.94857 3230 ft 193 kts 175°
2026-05-07 21:37 51.48338 -0.94163 3011 ft 186 kts 134°
2026-05-07 21:37 51.47702 -0.92422 3015 ft 181 kts 105°
2026-05-07 21:37 51.47513 -0.90431 3008 ft 182 kts 92°
2026-05-07 21:37 51.47544 -0.88377 3012 ft 182 kts 88°
2026-05-07 21:38 51.47615 -0.86360 3009 ft 182 kts 89°
2026-05-07 21:38 51.47666 -0.84355 3001 ft 173 kts 90°
2026-05-07 21:38 51.47693 -0.82482 3019 ft 162 kts 90°
2026-05-07 21:38 51.47706 -0.80676 3013 ft 161 kts 91°
2026-05-07 21:39 51.47711 -0.78865 3012 ft 161 kts 91°
2026-05-07 21:39 51.47713 -0.77054 3016 ft 161 kts 91°
2026-05-07 21:39 51.47712 -0.75259 3014 ft 160 kts 91°
2026-05-07 21:39 51.47711 -0.73440 3012 ft 161 kts 91°
2026-05-07 21:40 51.47710 -0.71641 2982 ft 161 kts 91°
2026-05-07 21:40 51.47710 -0.69850 2772 ft 159 kts 91°
2026-05-07 21:40 51.47711 -0.68097 2554 ft 155 kts 92°
2026-05-07 21:40 51.47712 -0.66387 2328 ft 151 kts 92°
2026-05-07 21:41 51.47714 -0.64705 2138 ft 150 kts 92°
2026-05-07 21:41 51.47716 -0.63023 1941 ft 151 kts 92°
2026-05-07 21:41 51.47719 -0.61359 1751 ft 151 kts 92°
2026-05-07 21:41 51.47722 -0.59648 1522 ft 151 kts 92°
2026-05-07 21:42 51.47726 -0.57987 1328 ft 151 kts 92°
2026-05-07 21:42 51.47731 -0.56300 1110 ft 151 kts 92°
2026-05-07 21:42 51.47736 -0.54611 905 ft 150 kts 91°
2026-05-07 21:42 51.47739 -0.52947 693 ft 148 kts 92°
2026-05-07 21:43 51.47742 -0.51302 497 ft 147 kts 91°
2026-05-07 21:43 51.47753 -0.49647 250 ft 146 kts 91°
2026-05-07 21:43 51.47754 -0.48021 98 ft 143 kts 91°
2026-05-07 21:43 51.47752 -0.46687 101 ft 91 kts 89°
2026-05-07 21:44 51.47758 -0.45888 94 ft 57 kts 90°
2026-05-07 21:44 51.47751 -0.45528 94 ft 16 kts 114°
2026-05-07 21:44 51.47652 -0.45468 93 ft 7 kts 180°
2026-05-07 21:44 51.47590 -0.45468 94 ft 11 kts 180°
2026-05-07 21:45 51.47541 -0.45451 93 ft 3 kts 133°
2026-05-07 21:45 51.47523 -0.45403 97 ft 6 kts 113°
2026-05-07 21:45 51.47507 -0.45313 96 ft 10 kts 100°
2026-05-07 21:45 51.47505 -0.45181 96 ft 13 kts 88°
2026-05-07 21:46 51.47508 -0.45007 97 ft 17 kts 89°
2026-05-07 21:46 51.47511 -0.44793 97 ft 20 kts 89°
2026-05-07 21:46 51.47480 -0.44571 97 ft 14 kts 155°
2026-05-07 21:46 51.47408 -0.44566 96 ft 10 kts 176°
2026-05-07 21:47 51.47325 -0.44558 94 ft 13 kts 178°
2026-05-07 21:47 51.47210 -0.44558 93 ft 17 kts 180°
2026-05-07 21:47 51.47101 -0.44558 93 ft 14 kts 180°
2026-05-07 21:47 51.47007 -0.44557 93 ft 2 kts 180°
2026-05-07 21:48 51.46978 -0.44557 93 ft 6 kts 180°
2026-05-07 21:48 51.46954 -0.44557 93 ft 0 kts 175°
2026-05-07 21:48 51.46943 -0.44547 95 ft 8 kts 124°
2026-05-07 21:48 51.46941 -0.44513 96 ft 7 kts 91°
2026-05-07 21:49 51.46940 -0.44468 95 ft 1 kts 90°
2026-05-07 21:49 51.46940 -0.44440 93 ft 4 kts 90°
2026-05-07 21:49 51.46940 -0.44422 93 ft 0 kts 90°
2026-05-07 21:49 51.46940 -0.44414 93 ft 0 kts 90°
2026-05-07 21:50 51.46940 -0.44411 93 ft 0 kts 90°